User: anonymous   Login
Location: Caribou
(46.8667°N, 68.0167°W)
Time: 13:21:35
(UTC-04:00)
Language:

SL-08 RB Rocket - Orbit

View from above orbital plane
View from above orbital plane
View from above satellite
View from above satellite

Ground track
Ground track

The orbit data is extracted from the following two-line orbital elements,

1 26387U 00033D   15184.14468200  .00000238  00000-0  49870-4 0  9991
2 26387 098.0622 251.9126 0028107 087.4731 328.9087 14.67916085802968
Epoch (UTC): 03 July 2015 03:28:20
Eccentricity: 0.0028107
inclination: 98.0622°
perigee height: 648 km
apogee height: 687 km
right ascension of ascending node: 251.9126°
argument of perigee: 87.4731°
revolutions per day: 14.67916085
mean anomaly at epoch: 328.9087°
orbit number at epoch: 80296

The dashed part of the orbit path shows where the satellite is in the earth's shadow,  

DLR